[[{"header":{"parameterUnit":"m.s-1","parameterCategory":1,"la1":30.2991,"la2":30.254,"lo1":-89.0895,"lo2":-89.0444,"dy":0.0017,"dx":0.0017,"nx":28,"ny":28,"refTime":"2025-06-08T21:00:00:Z","depth":0,"parameterNumber":2,"parameterNumberName":"U-component_of_WINDS"},"data":[0,0,0,0,0,0,0,0,0,0,0,0,0,0,0,0,0,0,0,0,0,0,0,0,0,0,0,0,0,0,0,0,0,0,0,0,0,0,0,0,0,0,0,0,0,0,0,0,0,0,0,0,0,0,0,0,0,0,3.6683,3.6684,0,3.6765,3.6766,3.6767,3.6653,3.6649,3.6645,3.6641,3.6734,3.674,3.6746,0,0,0,0,0,0,0,0,0,0,0,0,0,3.6442,3.6447,3.6683,3.6684,3.6685,3.6765,3.6766,3.6767,3.6654,3.6649,3.6644,3.6639,3.6732,3.6739,3.6747,0,0,0,0,0,0,0,0,0,0,0,0,0,3.6538,3.6448,3.6683,3.6638,3.6635,3.6764,3.6766,3.6767,3.6655,3.6649,3.6642,3.6637,3.6729,3.6738,3.6748,3.6928,0,0,3.6776,3.678,0,0,0,0,0,0,0,0,3.6532,3.6547,3.6644,3.6641,3.6638,3.6692,3.6714,3.6821,3.6656,3.6647,3.6641,3.6634,3.6725,3.6735,3.6764,3.6932,3.6936,3.6777,3.6783,3.6787,3.6789,0,0,0,0,0,0,0,3.6526,3.6543,3.6716,3.6645,3.6642,3.6618,3.6625,3.6734,3.672,3.6648,3.664,3.665,3.6723,3.6755,3.6765,3.6937,3.6777,3.6785,3.6791,3.6795,3.7265,3.7271,0,0,0,0,0,0,3.6523,3.6538,3.6713,3.6718,3.6569,3.6627,3.6635,3.6681,3.6718,3.6718,3.6656,3.6645,3.6742,3.6754,3.6768,3.6985,3.6787,3.6796,3.6801,3.7258,3.7266,3.7274,0,0,0,0,0,0,3.6518,3.654,3.671,3.6626,3.6646,3.6638,3.6691,3.6686,3.6718,3.6724,3.6722,3.669,3.6738,3.6755,3.689,3.6986,3.68,3.6808,3.725,3.7261,3.727,3.7418,0,0,0,0,0,0,3.6512,3.6539,3.6604,3.6628,3.665,3.6827,3.6697,3.6692,3.6733,3.672,3.6756,3.6756,3.6734,3.6876,3.6899,3.6996,3.6816,3.7241,3.7255,3.7267,3.7405,3.7432,3.7456,0,0,0,0,0,3.6503,3.6643,3.6607,3.6629,3.6731,3.6832,3.6846,3.6814,3.6741,3.6809,3.6814,3.6755,3.6972,3.6891,3.6916,3.7017,3.7235,3.7251,3.7266,3.7393,3.7427,3.7456,0,0,0,0,0,0,3.6632,3.6645,3.6606,3.6756,3.6794,3.6813,3.6896,3.685,3.6911,3.6897,3.6859,3.6868,3.7013,3.7028,3.6938,3.7197,3.7092,3.7113,3.7181,3.7213,3.7238,3.7232,3.6824,0,0,0,0,0,3.6677,3.6755,3.6764,3.6896,3.6917,3.6904,3.6947,3.692,3.6959,3.6975,3.6989,3.7032,3.711,3.7162,3.7234,3.7407,3.7416,3.749,3.7515,3.7536,3.7555,3.7653,3.7687,3.7324,3.7324,3.7324,0,0,3.6773,3.679,3.6841,3.6923,3.6948,3.7034,3.6918,3.7012,3.7077,3.699,3.7118,3.7131,3.7177,3.7333,3.7402,3.735,3.7658,3.7556,3.7573,3.758,3.7673,3.7707,3.7738,3.7335,3.7333,3.7331,0,0,3.699,3.7009,3.7123,3.7152,3.7193,3.7184,3.7212,3.7239,3.7244,3.7372,3.731,3.7389,3.7522,3.7559,3.7595,3.7833,3.7783,3.7858,3.7992,3.8088,3.8117,3.8142,3.8231,3.8262,3.7877,3.7877,3.7878,0,3.7104,3.7227,3.7189,3.7289,3.7329,3.7253,3.7372,3.7402,3.7466,3.7497,3.7438,3.7608,3.7633,3.7798,3.7857,3.7888,3.7922,3.7853,3.8115,3.814,3.8163,3.8247,3.828,3.7886,3.7885,3.7884,3.7884,0,3.7368,3.7454,3.7543,3.7604,3.7654,3.7763,3.7746,3.7803,3.7773,3.7773,3.7908,3.7936,3.8014,3.8052,3.8024,3.8216,3.8183,3.812,3.8014,3.8207,3.8286,3.8318,3.7899,3.7896,3.7893,3.7891,0,0,3.7665,3.7707,3.774,3.7769,3.7811,3.7879,3.7988,3.8063,3.8114,3.8162,3.8255,3.8373,3.8316,3.8358,3.8334,3.8418,3.8611,3.8346,3.8347,3.8396,3.8829,3.8877,3.8914,3.8578,3.8584,3.8588,3.8826,0,3.7884,3.8067,3.8039,3.8218,3.8301,3.8233,3.8329,3.8368,3.8372,3.8446,3.8452,3.8537,3.8454,3.848,3.856,3.857,3.8697,3.8552,3.8668,3.8673,3.8659,3.8955,3.9004,3.9227,3.8856,3.8861,3.8865,0,3.8163,3.8221,3.8408,3.8441,3.8475,3.856,3.8629,3.87,3.8745,3.8743,3.8792,3.8755,3.8869,3.8761,3.8921,3.8823,3.887,3.8883,3.8891,3.8901,3.8781,3.8975,3.9297,3.9331,3.8913,3.8909,3.8905,0,3.8366,3.849,3.8619,3.8646,3.8687,3.8749,3.877,3.8809,3.8857,3.892,3.8952,3.9028,3.907,3.9132,3.9118,3.9041,3.9284,3.9174,3.9289,3.9289,3.9342,3.9339,3.9678,3.9371,3.937,3.9369,3.9369,0,3.8614,3.8732,3.871,3.879,3.8922,3.8892,3.9025,3.9038,3.9074,3.9159,3.9106,3.9187,3.9164,3.9246,3.9237,3.9374,3.9393,3.9397,3.9394,3.9403,3.9403,3.9433,3.9418,3.9378,3.9376,3.9375,3.9373,0,3.8861,3.8851,3.8988,3.9016,3.9027,3.9124,3.915,3.9228,3.9229,3.9337,3.9361,3.9365,3.9459,3.9452,3.9559,3.9553,3.9723,3.97,3.9707,3.9702,3.9818,3.9809,4.0189,4.0239,3.9898,3.9901,3.9904,0,3.9021,3.911,3.9149,3.92,3.9225,3.9309,3.9359,3.9334,3.9389,3.945,3.9522,3.9611,3.9681,3.9837,3.9852,3.9935,3.9915,4.0043,3.9927,3.9935,3.9921,3.9916,3.9927,4.0066,4.007,4.0073,4.0076,0,3.9306,3.9298,3.9369,3.9442,3.9502,3.9558,3.9609,3.9656,3.9637,3.9703,3.9797,3.9852,3.9962,4.0053,4.0134,4.016,4.0118,4.0112,4.0144,4.0154,4.0155,4.0159,3.9771,4.0104,4.0101,4.0099,4.0097,4.0096,3.9516,3.9594,3.9634,3.9718,3.9754,3.9804,3.9879,3.9891,3.9968,4.0054,4.0036,4.0145,4.0194,4.0297,4.0331,4.0419,4.0373,4.0418,4.043,4.0442,4.0456,4.0141,4.0433,4.0433,4.0432,4.0431,4.0431,0,3.9801,3.9825,3.9902,3.9975,4.0042,3.9994,4.0049,4.011,4.0205,4.0253,4.0323,4.0436,4.0525,4.0549,4.0636,4.0703,4.0686,4.0727,4.0722,4.073,4.049,4.0455,4.0739,4.0739,4.0739,4.0739,4.0739,4.0739,3.9957,4.0087,4.0085,4.0235,4.0259,4.0362,4.0399,4.0447,4.0485,4.0612,4.0686,4.07,4.074,4.0831,4.0913,4.0918,4.0954,4.1003,4.1001,4.0777,4.0746,4.0717,4.0684,4.1011,4.1011,4.1234,4.1236,4.1237]},{"header":{"parameterUnit":"m.s-1","parameterCategory":1,"la1":30.2991,"la2":30.254,"lo1":-89.0895,"lo2":-89.0444,"dy":0.0017,"dx":0.0017,"nx":28,"ny":28,"refTime":"2025-06-08T21:00:00:Z","depth":0,"parameterNumber":3,"parameterNumberName":"V-component_of_WINDS"},"data":[0,0,0,0,0,0,0,0,0,0,0,0,0,0,0,0,0,0,0,0,0,0,0,0,0,0,0,0,0,0,0,0,0,0,0,0,0,0,0,0,0,0,0,0,0,0,0,0,0,0,0,0,0,0,0,0,0,0,-0.8781,-0.8781,0,-0.8809,-0.8809,-0.881,-0.8876,-0.8877,-0.8878,-0.888,-0.8906,-0.8905,-0.8904,0,0,0,0,0,0,0,0,0,0,0,0,0,-0.878,-0.878,-0.8781,-0.8781,-0.8781,-0.8809,-0.8809,-0.881,-0.8875,-0.8877,-0.8879,-0.888,-0.8906,-0.8905,-0.8904,0,0,0,0,0,0,0,0,0,0,0,0,0,-0.8792,-0.878,-0.8781,-0.8818,-0.8821,-0.8809,-0.8809,-0.881,-0.8875,-0.8877,-0.8879,-0.8881,-0.8906,-0.8905,-0.8904,-0.8857,0,0,-0.8901,-0.8901,0,0,0,0,0,0,0,0,-0.8791,-0.8792,-0.8812,-0.8815,-0.8819,-0.8841,-0.8819,-0.8826,-0.8875,-0.8855,-0.888,-0.8882,-0.8882,-0.8883,-0.8884,-0.8858,-0.886,-0.8901,-0.8901,-0.89,-0.89,0,0,0,0,0,0,0,-0.879,-0.8791,-0.8792,-0.8812,-0.8816,-0.8832,-0.8836,-0.882,-0.8856,-0.8856,-0.8861,-0.8864,-0.8885,-0.8885,-0.8885,-0.886,-0.8901,-0.8901,-0.89,-0.89,-0.8796,-0.8794,0,0,0,0,0,0,-0.8784,-0.879,-0.8791,-0.8793,-0.881,-0.883,-0.8834,-0.8832,-0.8857,-0.8863,-0.8862,-0.8867,-0.8885,-0.8886,-0.8886,-0.8832,-0.89,-0.89,-0.8899,-0.8798,-0.8795,-0.8793,0,0,0,0,0,0,-0.8784,-0.8784,-0.879,-0.8792,-0.8794,-0.8828,-0.8824,-0.8831,-0.8832,-0.8861,-0.8867,-0.8856,-0.8887,-0.8888,-0.8864,-0.8833,-0.8899,-0.8898,-0.8801,-0.8797,-0.8794,-0.8723,0,0,0,0,0,0,-0.8784,-0.8783,-0.8767,-0.8792,-0.8794,-0.8768,-0.8823,-0.883,-0.883,-0.8837,-0.8857,-0.8862,-0.8889,-0.8865,-0.8863,-0.8833,-0.8898,-0.8803,-0.8799,-0.8795,-0.8728,-0.8717,-0.8708,0,0,0,0,0,-0.8784,-0.8745,-0.8765,-0.8765,-0.8774,-0.8766,-0.8767,-0.8799,-0.8828,-0.881,-0.8829,-0.8862,-0.8838,-0.8862,-0.886,-0.883,-0.8805,-0.88,-0.8795,-0.8732,-0.8719,-0.8708,0,0,0,0,0,0,-0.8714,-0.8749,-0.8772,-0.8741,-0.875,-0.8777,-0.8756,-0.8785,-0.8785,-0.8791,-0.883,-0.8834,-0.8805,-0.8815,-0.8842,-0.8785,-0.8827,-0.8821,-0.8779,-0.8767,-0.8757,-0.8755,-0.8897,0,0,0,0,0,-0.8696,-0.8687,-0.8718,-0.8687,-0.869,-0.8722,-0.872,-0.8744,-0.8755,-0.8759,-0.8776,-0.8784,-0.8778,-0.8774,-0.877,-0.873,-0.8734,-0.8709,-0.8699,-0.8691,-0.8685,-0.8663,-0.8651,-0.8776,-0.8776,-0.8777,0,0,-0.8656,-0.8674,-0.8666,-0.8673,-0.8683,-0.8672,-0.8725,-0.8712,-0.8703,-0.8756,-0.8735,-0.8748,-0.8759,-0.8727,-0.8714,-0.8735,-0.8651,-0.8684,-0.8677,-0.8676,-0.8656,-0.8644,-0.8634,-0.8773,-0.8774,-0.8774,0,0,-0.8579,-0.8593,-0.8568,-0.8577,-0.8592,-0.8613,-0.8607,-0.863,-0.8641,-0.862,-0.8659,-0.865,-0.864,-0.8646,-0.8648,-0.8573,-0.8601,-0.857,-0.8518,-0.8496,-0.8486,-0.8478,-0.8449,-0.8438,-0.8565,-0.8565,-0.8564,0,-0.8528,-0.8514,-0.8551,-0.8535,-0.8536,-0.8585,-0.8559,-0.8566,-0.8578,-0.8577,-0.8602,-0.8589,-0.8601,-0.8569,-0.8551,-0.8552,-0.8544,-0.8567,-0.8485,-0.8477,-0.8469,-0.8442,-0.8432,-0.8561,-0.8561,-0.8561,-0.8562,0,-0.845,-0.844,-0.8418,-0.8429,-0.8428,-0.8407,-0.844,-0.8434,-0.8458,-0.8477,-0.8454,-0.847,-0.8469,-0.8464,-0.8488,-0.8436,-0.8449,-0.8478,-0.852,-0.8453,-0.8428,-0.8418,-0.8555,-0.8556,-0.8557,-0.8558,0,0,-0.8329,-0.8361,-0.8352,-0.8358,-0.8378,-0.837,-0.8351,-0.8351,-0.8345,-0.8352,-0.8335,-0.8325,-0.8353,-0.8355,-0.8379,-0.836,-0.8297,-0.8393,-0.8393,-0.8372,-0.8239,-0.8215,-0.8203,-0.8318,-0.8316,-0.8315,-0.8238,0,-0.8255,-0.8225,-0.8257,-0.822,-0.821,-0.8256,-0.8239,-0.8248,-0.8265,-0.8258,-0.8276,-0.8268,-0.8306,-0.8307,-0.8291,-0.8309,-0.8271,-0.8315,-0.8301,-0.83,-0.8294,-0.819,-0.8165,-0.8091,-0.8228,-0.8227,-0.8226,0,-0.8164,-0.8167,-0.8129,-0.8151,-0.8148,-0.8132,-0.8134,-0.8128,-0.8139,-0.8153,-0.8155,-0.8184,-0.8166,-0.8208,-0.8181,-0.8211,-0.8207,-0.8215,-0.8213,-0.8211,-0.8257,-0.8183,-0.8069,-0.8057,-0.8211,-0.8212,-0.8213,0,-0.8077,-0.8072,-0.8048,-0.8051,-0.8077,-0.8064,-0.8074,-0.8087,-0.8085,-0.8088,-0.8086,-0.8086,-0.8085,-0.8083,-0.8111,-0.814,-0.8081,-0.8126,-0.8089,-0.8088,-0.8073,-0.8073,-0.7954,-0.8074,-0.8074,-0.8074,-0.8075,0,-0.799,-0.7964,-0.8009,-0.7994,-0.7966,-0.8004,-0.7974,-0.7989,-0.8,-0.7988,-0.8028,-0.8015,-0.8054,-0.8045,-0.8067,-0.804,-0.804,-0.8049,-0.8055,-0.8044,-0.8043,-0.8041,-0.8046,-0.8071,-0.8072,-0.8073,-0.8073,0,-0.7887,-0.7917,-0.7893,-0.7919,-0.7925,-0.7903,-0.7925,-0.7911,-0.7931,-0.7914,-0.7912,-0.7943,-0.7934,-0.7962,-0.7958,-0.7973,-0.7933,-0.7948,-0.7929,-0.7933,-0.7894,-0.7896,-0.7768,-0.7752,-0.7884,-0.7883,-0.7881,0,-0.7828,-0.781,-0.7834,-0.7829,-0.7836,-0.7828,-0.7826,-0.7862,-0.7859,-0.787,-0.7854,-0.7849,-0.7846,-0.783,-0.785,-0.7847,-0.7861,-0.7816,-0.786,-0.785,-0.7857,-0.7857,-0.7855,-0.7806,-0.7804,-0.7803,-0.7802,0,-0.7721,-0.7736,-0.7733,-0.7734,-0.7731,-0.7734,-0.7739,-0.7732,-0.7771,-0.7764,-0.7756,-0.7754,-0.775,-0.7743,-0.7744,-0.7753,-0.7782,-0.7788,-0.7779,-0.7767,-0.7756,-0.7759,-0.7902,-0.7791,-0.7792,-0.7793,-0.7793,-0.7794,-0.7637,-0.7622,-0.7636,-0.7631,-0.7639,-0.7642,-0.763,-0.7649,-0.7643,-0.7643,-0.7665,-0.7651,-0.7662,-0.7667,-0.7672,-0.7661,-0.7682,-0.7669,-0.7666,-0.7661,-0.7654,-0.7759,-0.7662,-0.7662,-0.7663,-0.7663,-0.7663,0,-0.7529,-0.7541,-0.7536,-0.7542,-0.7537,-0.7568,-0.7575,-0.7568,-0.7557,-0.7565,-0.7562,-0.7551,-0.7545,-0.7565,-0.7562,-0.7549,-0.7562,-0.7547,-0.7547,-0.7548,-0.7637,-0.7644,-0.7536,-0.7536,-0.7536,-0.7536,-0.7536,-0.7536,-0.7473,-0.7448,-0.7465,-0.7445,-0.7456,-0.7445,-0.7446,-0.7449,-0.7455,-0.7442,-0.7438,-0.7452,-0.7464,-0.7461,-0.7456,-0.7462,-0.7458,-0.7437,-0.7447,-0.7529,-0.7542,-0.7553,-0.756,-0.7436,-0.7436,-0.7358,-0.7358,-0.7357]}]]